| time (UTC) | temp F | wind direction | speed MPH | gust MPH | rain 1hr in | rain 24hr in | rain mn in | humidity % | barometer mb |
| 20260831025042 | 60 | 120 | 1.0 | 6.0 | 0.00 | 0.98 | 0.01 | 97 | 1007.6 |
| 20260831024607 | 60 | 148 | 1.0 | 6.0 | 0.00 | 0.98 | 0.01 | 97 | 1007.6 |
| 20260831024042 | 60 | 147 | 0.0 | 3.0 | 0.00 | 0.98 | 0.01 | 96 | 1007.6 |
| 20260831023541 | 60 | 122 | 1.0 | 3.0 | 0.00 | 0.98 | 0.01 | 96 | 1007.7 |
| 20260831023041 | 60 | 128 | 1.0 | 3.0 | 0.00 | 0.98 | 0.01 | 96 | 1007.7 |
| 20260831022539 | 60 | 120 | 0.0 | 3.0 | 0.00 | 0.98 | 0.01 | 96 | 1007.7 |
| 20260831022038 | 60 | 121 | 0.0 | 2.0 | 0.00 | 0.98 | 0.01 | 96 | 1007.8 |
| 20260831021538 | 60 | 122 | 0.0 | 2.0 | 0.00 | 0.98 | 0.01 | 96 | 1007.9 |
| 20260831021038 | 60 | 105 | 0.0 | 2.0 | 0.00 | 0.98 | 0.01 | 96 | 1007.9 |
| 20260831020539 | 60 | 119 | 1.0 | 3.0 | 0.00 | 0.98 | 0.01 | 96 | 1007.9 |
| 20260831020100 | 60 | 103 | 1.0 | 3.0 | 0.00 | 0.98 | 0.01 | 96 | 1007.9 |
| 20260831015540 | 60 | 110 | 1.0 | 5.0 | 0.00 | 1.04 | 0.01 | 96 | 1007.9 |
| 20260831015036 | 60 | 160 | 0.0 | 5.0 | 0.00 | 1.04 | 0.01 | 97 | 1007.8 |
| 20260831014551 | 61 | 118 | 1.0 | 4.0 | 0.00 | 1.04 | 0.01 | 97 | 1007.9 |
| 20260831014036 | 61 | 181 | 1.0 | 4.0 | 0.00 | 1.04 | 0.01 | 97 | 1008.1 |
| 20260831013536 | 61 | 111 | 1.0 | 4.0 | 0.00 | 1.04 | 0.01 | 97 | 1008.2 |
| 20260831013035 | 61 | 156 | 1.0 | 4.0 | 0.00 | 1.04 | 0.01 | 97 | 1008.2 |
| 20260831012537 | 61 | 209 | 2.0 | 3.0 | 0.00 | 1.04 | 0.01 | 97 | 1008.2 |
| 20260831012038 | 61 | 180 | 1.0 | 4.0 | 0.00 | 1.04 | 0.01 | 97 | 1008.1 |
| 20260831011537 | 61 | 120 | 2.0 | 4.0 | 0.00 | 1.04 | 0.01 | 97 | 1008.2 |
| 20260831011034 | 61 | 121 | 1.0 | 4.0 | 0.00 | 1.04 | 0.01 | 97 | 1008.1 |
| 20260831010533 | 61 | 115 | 1.0 | 4.0 | 0.00 | 1.04 | 0.01 | 97 | 1008.0 |
| 20260831010043 | 61 | 137 | 1.0 | 4.0 | 0.00 | 1.04 | 0.01 | 96 | 1007.9 |
| 20260831005532 | 61 | 118 | 1.0 | 4.0 | 0.00 | 1.04 | 0.01 | 96 | 1007.9 |
| 20260831005032 | 61 | 106 | 0.0 | 4.0 | 0.01 | 1.04 | 0.01 | 97 | 1008.0 |
| 20260831004531 | 61 | 119 | 1.0 | 6.0 | 0.01 | 1.04 | 0.01 | 96 | 1007.9 |
| 20260831004031 | 62 | 119 | 2.0 | 6.0 | 0.01 | 1.04 | 0.01 | 96 | 1008.0 |
| 20260831003531 | 62 | 115 | 1.0 | 4.0 | 0.01 | 1.04 | 0.01 | 96 | 1008.0 |
| 20260831003029 | 62 | 117 | 1.0 | 4.0 | 0.01 | 1.04 | 0.01 | 97 | 1007.9 |
| 20260831002528 | 62 | 100 | 1.0 | 3.0 | 0.01 | 1.04 | 0.01 | 97 | 1008.2 |
| 20260831002027 | 62 | 130 | 0.0 | 4.0 | 0.01 | 1.04 | 0.01 | 97 | 1008.3 |
| 20260831001536 | 62 | 114 | 1.0 | 4.0 | 0.01 | 1.04 | 0.01 | 97 | 1008.3 |
| 20260831001026 | 62 | 107 | 2.0 | 4.0 | 0.01 | 1.04 | 0.01 | 97 | 1008.5 |
| 20260831000525 | 62 | 123 | 1.0 | 3.0 | 0.01 | 1.04 | 0.01 | 97 | 1008.5 |
| 20260831000025 | 62 | 115 | 1.0 | 6.0 | 0.01 | 1.04 | 0.01 | 97 | 1008.5 |
| 20260830235530 | 62 | 207 | 1.0 | 6.0 | 0.01 | 1.20 | 0.01 | 97 | 1008.5 |
| 20260830235027 | 62 | 149 | 1.0 | 6.0 | 0.00 | 1.20 | 0.00 | 96 | 1008.6 |
| 20260830234537 | 62 | 123 | 2.0 | 6.0 | 0.00 | 1.20 | 0.00 | 96 | 1008.7 |
| 20260830234022 | 62 | 134 | 0.0 | 2.0 | 0.00 | 1.20 | 0.00 | 96 | 1008.7 |
| 20260830233525 | 62 | 153 | 0.0 | 3.0 | 0.00 | 1.20 | 0.00 | 96 | 1008.6 |
| 20260830233023 | 62 | 136 | 0.0 | 3.0 | 0.00 | 1.20 | 0.00 | 96 | 1008.6 |
| 20260830232521 | 62 | 124 | 0.0 | 3.0 | 0.00 | 1.20 | 0.00 | 96 | 1008.7 |
| 20260830232020 | 62 | 118 | 0.0 | 3.0 | 0.00 | 1.20 | 0.00 | 96 | 1008.7 |
| 20260830231520 | 62 | 158 | 0.0 | 2.0 | 0.00 | 1.20 | 0.00 | 96 | 1008.7 |
| 20260830231020 | 62 | 128 | 0.0 | 2.0 | 0.00 | 1.20 | 0.00 | 96 | 1008.6 |
| 20260830230519 | 62 | 128 | 1.0 | 2.0 | 0.00 | 1.20 | 0.00 | 96 | 1008.7 |
| 20260830230031 | 62 | 130 | 0.0 | 2.0 | 0.00 | 1.20 | 0.00 | 96 | 1008.8 |
| 20260830225519 | 62 | 132 | 0.0 | 2.0 | 0.00 | 1.20 | 0.00 | 96 | 1008.8 |
| 20260830225022 | 62 | 137 | 0.0 | 2.0 | 0.00 | 1.20 | 0.00 | 95 | 1008.8 |
| 20260830224529 | 62 | 137 | 0.0 | 2.0 | 0.01 | 1.20 | 0.00 | 95 | 1008.9 |
| 20260830224019 | 62 | 157 | 0.0 | 2.0 | 0.02 | 1.20 | 0.00 | 95 | 1008.8 |
| 20260830223517 | 62 | 120 | 0.0 | 2.0 | 0.06 | 1.20 | 0.00 | 95 | 1008.9 |
| 20260830223019 | 62 | 109 | 0.0 | 2.0 | 0.06 | 1.20 | 0.00 | 95 | 1009.0 |
| 20260830222514 | 62 | 109 | 0.0 | 2.0 | 0.06 | 1.20 | 0.00 | 95 | 1009.0 |
| 20260830222018 | 62 | 109 | 0.0 | 0.0 | 0.07 | 1.20 | 0.00 | 95 | 1009.1 |
| 20260830221513 | 62 | 109 | 0.0 | 0.0 | 0.08 | 1.20 | 0.00 | 95 | 1009.2 |
| 20260830221014 | 62 | 109 | 0.0 | 1.0 | 0.09 | 1.20 | 0.00 | 95 | 1009.2 |
| 20260830220513 | 62 | 109 | 0.0 | 1.0 | 0.12 | 1.20 | 0.00 | 95 | 1009.1 |
| 20260830220024 | 62 | 109 | 0.0 | 1.0 | 0.19 | 1.20 | 0.00 | 94 | 1009.2 |
| 20260830215512 | 62 | 109 | 0.0 | 2.0 | 0.24 | 1.21 | 1.20 | 94 | 1009.3 |
| 20260830215011 | 62 | 109 | 0.0 | 2.0 | 0.24 | 1.21 | 1.20 | 94 | 1009.5 |
| 20260830214510 | 63 | 109 | 0.0 | 5.0 | 0.24 | 1.20 | 1.19 | 94 | 1009.7 |
| 20260830214009 | 63 | 174 | 1.0 | 6.0 | 0.21 | 1.18 | 1.17 | 94 | 1009.7 |
| 20260830213509 | 63 | 126 | 1.0 | 6.0 | 0.19 | 1.15 | 1.13 | 93 | 1009.9 |
| 20260830213009 | 63 | 85 | 1.0 | 3.0 | 0.18 | 1.14 | 1.12 | 93 | 1009.9 |
| 20260830212508 | 63 | 244 | 1.0 | 3.0 | 0.18 | 1.14 | 1.12 | 93 | 1009.9 |
| 20260830212010 | 63 | 161 | 1.0 | 5.0 | 0.17 | 1.13 | 1.12 | 92 | 1009.8 |
| 20260830211507 | 63 | 118 | 1.0 | 7.0 | 0.17 | 1.12 | 1.12 | 91 | 1009.9 |
| 20260830211007 | 64 | 95 | 1.0 | 7.0 | 0.15 | 1.12 | 1.10 | 91 | 1009.9 |
| 20260830210507 | 64 | 209 | 2.0 | 6.0 | 0.12 | 1.09 | 1.07 | 90 | 1009.9 |
| 20260830210006 | 65 | 98 | 0.0 | 4.0 | 0.02 | 0.98 | 0.97 | 90 | 1010.1 |
| 20260830205506 | 65 | 128 | 0.0 | 3.0 | 0.00 | 0.99 | 0.95 | 90 | 1009.5 |
| 20260830205006 | 65 | 171 | 0.0 | 4.0 | 0.00 | 0.99 | 0.95 | 90 | 1009.5 |
| 20260830204509 | 64 | 119 | 1.0 | 3.0 | 0.00 | 0.99 | 0.95 | 90 | 1009.5 |
| 20260830204006 | 64 | 121 | 1.0 | 3.0 | 0.00 | 0.99 | 0.95 | 90 | 1009.6 |
| 20260830203506 | 64 | 115 | 0.0 | 3.0 | 0.00 | 0.99 | 0.95 | 90 | 1009.6 |
| 20260830203006 | 64 | 118 | 0.0 | 3.0 | 0.00 | 0.99 | 0.95 | 90 | 1009.7 |
| 20260830202505 | 64 | 141 | 0.0 | 3.0 | 0.00 | 0.99 | 0.95 | 90 | 1009.8 |
| 20260830202005 | 64 | 128 | 0.0 | 2.0 | 0.00 | 0.99 | 0.95 | 90 | 1009.8 |
| 20260830201517 | 64 | 128 | 0.0 | 1.0 | 0.00 | 0.99 | 0.95 | 90 | 1009.8 |
| 20260830201007 | 64 | 128 | 0.0 | 2.0 | 0.00 | 0.99 | 0.95 | 90 | 1009.9 |
| 20260830200505 | 64 | 128 | 0.0 | 2.0 | 0.00 | 0.99 | 0.95 | 89 | 1009.9 |
| 20260830200004 | 64 | 128 | 0.0 | 2.0 | 0.00 | 0.99 | 0.95 | 89 | 1010.0 |
| 20260830195504 | 64 | 128 | 0.0 | 2.0 | 0.00 | 1.36 | 0.95 | 89 | 1010.0 |
| 20260830195004 | 64 | 128 | 0.0 | 2.0 | 0.00 | 1.36 | 0.95 | 88 | 1010.1 |
| 20260830194505 | 64 | 128 | 0.0 | 2.0 | 0.00 | 1.36 | 0.95 | 88 | 1010.2 |
| 20260830194005 | 65 | 128 | 0.0 | 3.0 | 0.00 | 1.36 | 0.95 | 88 | 1010.2 |
| 20260830193503 | 65 | 132 | 0.0 | 2.0 | 0.00 | 1.36 | 0.95 | 88 | 1010.1 |
| 20260830193004 | 65 | 132 | 0.0 | 2.0 | 0.00 | 1.36 | 0.95 | 87 | 1010.2 |
| 20260830192502 | 65 | 132 | 0.0 | 2.0 | 0.00 | 1.36 | 0.95 | 87 | 1010.2 |
| 20260830192002 | 65 | 144 | 0.0 | 2.0 | 0.00 | 1.36 | 0.95 | 87 | 1010.2 |
| 20260830191502 | 65 | 144 | 0.0 | 2.0 | 0.00 | 1.36 | 0.95 | 87 | 1010.2 |
| 20260830191001 | 65 | 148 | 0.0 | 2.0 | 0.00 | 1.36 | 0.95 | 87 | 1010.1 |
| 20260830190502 | 65 | 148 | 0.0 | 2.0 | 0.00 | 1.36 | 0.95 | 86 | 1010.2 |
| 20260830190002 | 65 | 148 | 0.0 | 2.0 | 0.00 | 1.36 | 0.95 | 86 | 1010.2 |
| 20260830185501 | 66 | 148 | 0.0 | 1.0 | 0.00 | 1.38 | 0.95 | 86 | 1010.4 |
| 20260830185001 | 66 | 148 | 0.0 | 2.0 | 0.00 | 1.38 | 0.95 | 85 | 1010.3 |
| 20260830184501 | 66 | 150 | 0.0 | 2.0 | 0.00 | 1.38 | 0.95 | 85 | 1010.3 |
| 20260830184001 | 66 | 153 | 0.0 | 2.0 | 0.00 | 1.38 | 0.95 | 85 | 1010.3 |
| 20260830183501 | 66 | 157 | 0.0 | 2.0 | 0.00 | 1.38 | 0.95 | 84 | 1010.3 |
| 20260830183101 | 66 | 138 | 0.0 | 2.0 | 0.00 | 1.38 | 0.95 | 84 | 1010.2 |
| 20260830182600 | 66 | 138 | 0.0 | 2.0 | 0.00 | 1.38 | 0.95 | 84 | 1010.3 |
| 20260830182100 | 67 | 153 | 0.0 | 2.0 | 0.00 | 1.38 | 0.95 | 83 | 1010.2 |
| 20260830181609 | 67 | 137 | 0.0 | 2.0 | 0.00 | 1.38 | 0.95 | 83 | 1010.4 |
| 20260830181059 | 67 | 110 | 0.0 | 1.0 | 0.00 | 1.38 | 0.95 | 83 | 1010.3 |
| 20260830180559 | 67 | 110 | 0.0 | 2.0 | 0.00 | 1.38 | 0.95 | 83 | 1010.3 |
| 20260830180110 | 67 | 110 | 0.0 | 2.0 | 0.00 | 1.38 | 0.95 | 83 | 1010.4 |
| 20260830175559 | 67 | 108 | 0.0 | 2.0 | 0.00 | 1.39 | 0.95 | 82 | 1010.5 |
| 20260830175500 | 67 | 108 | 0.0 | 2.0 | 0.00 | 1.39 | 0.95 | 82 | 1010.5 |
| 20260830175059 | 67 | 166 | 0.0 | 2.0 | 0.00 | 1.39 | 0.95 | 82 | 1010.5 |
| 20260830174609 | 67 | 161 | 0.0 | 2.0 | 0.00 | 1.39 | 0.95 | 82 | 1010.6 |
| 20260830174200 | 68 | 117 | 0.0 | 1.0 | 0.00 | 1.39 | 0.95 | 82 | 1010.7 |
| 20260830173559 | 68 | 197 | 0.0 | 2.0 | 0.00 | 1.39 | 0.95 | 81 | 1010.6 |
| 20260830173110 | 68 | 197 | 0.0 | 3.0 | 0.00 | 1.39 | 0.95 | 81 | 1010.6 |
| 20260830172558 | 68 | 121 | 0.0 | 3.0 | 0.00 | 1.39 | 0.95 | 81 | 1010.6 |
| 20260830172057 | 68 | 177 | 0.0 | 4.0 | 0.00 | 1.39 | 0.95 | 81 | 1010.7 |
| 20260830171603 | 68 | 313 | 0.0 | 3.0 | 0.00 | 1.39 | 0.95 | 81 | 1010.7 |
| 20260830171057 | 69 | 33 | 0.0 | 0.0 | 0.00 | 1.39 | 0.95 | 82 | 1010.7 |
| 20260830170557 | 69 | 33 | 0.0 | 2.0 | 0.00 | 1.39 | 0.95 | 81 | 1010.7 |
| 20260830170057 | 69 | 33 | 0.0 | 2.0 | 0.00 | 1.39 | 0.95 | 81 | 1010.8 |
| 20260830165557 | 69 | 30 | 0.0 | 2.0 | 0.00 | 1.39 | 0.95 | 81 | 1010.8 |
| 20260830165056 | 69 | 27 | 0.0 | 0.0 | 0.00 | 1.39 | 0.95 | 81 | 1010.8 |
| 20260830164557 | 70 | 27 | 0.0 | 2.0 | 0.00 | 1.39 | 0.95 | 81 | 1010.9 |
| 20260830164056 | 70 | 336 | 0.0 | 3.0 | 0.00 | 1.39 | 0.95 | 80 | 1010.9 |
| 20260830163556 | 70 | 259 | 1.0 | 3.0 | 0.00 | 1.39 | 0.95 | 80 | 1010.9 |
| 20260830163100 | 70 | 360 | 0.0 | 3.0 | 0.00 | 1.39 | 0.95 | 80 | 1010.9 |
| 20260830162556 | 70 | 319 | 0.0 | 3.0 | 0.00 | 1.39 | 0.95 | 79 | 1010.9 |
| 20260830162054 | 69 | 165 | 0.0 | 3.0 | 0.00 | 1.39 | 0.95 | 79 | 1011.0 |
| 20260830161555 | 69 | 263 | 0.0 | 4.0 | 0.00 | 1.39 | 0.95 | 79 | 1011.0 |
| 20260830161055 | 69 | 239 | 1.0 | 4.0 | 0.00 | 1.39 | 0.95 | 79 | 1011.0 |
| 20260830160553 | 69 | 211 | 0.0 | 6.0 | 0.00 | 1.39 | 0.95 | 79 | 1011.0 |
| 20260830160053 | 69 | 194 | 1.0 | 6.0 | 0.00 | 1.39 | 0.95 | 79 | 1011.0 |
| 20260830155554 | 69 | 207 | 1.0 | 5.0 | 0.00 | 1.39 | 0.95 | 80 | 1011.0 |
| 20260830155054 | 69 | 202 | 1.0 | 6.0 | 0.00 | 1.39 | 0.95 | 80 | 1011.1 |
| 20260830154553 | 69 | 321 | 0.0 | 6.0 | 0.00 | 1.39 | 0.95 | 81 | 1011.1 |
| 20260830154052 | 69 | 321 | 1.0 | 6.0 | 0.00 | 1.39 | 0.95 | 81 | 1011.2 |
| 20260830153552 | 69 | 330 | 1.0 | 6.0 | 0.00 | 1.39 | 0.95 | 81 | 1011.2 |
| 20260830153051 | 69 | 232 | 0.0 | 6.0 | 0.00 | 1.39 | 0.95 | 82 | 1011.2 |
| 20260830152551 | 69 | 206 | 1.0 | 5.0 | 0.00 | 1.39 | 0.95 | 81 | 1011.2 |
| 20260830152051 | 69 | 298 | 1.0 | 4.0 | 0.00 | 1.39 | 0.95 | 83 | 1011.2 |
| 20260830151602 | 69 | 226 | 0.0 | 5.0 | 0.00 | 1.39 | 0.95 | 84 | 1011.2 |
| 20260830151051 | 69 | 334 | 2.0 | 10.0 | 0.00 | 1.39 | 0.95 | 82 | 1011.2 |
| 20260830150553 | 69 | 355 | 2.0 | 9.0 | 0.00 | 1.39 | 0.95 | 82 | 1011.3 |
| 20260830150059 | 69 | 215 | 1.0 | 12.0 | 0.00 | 1.39 | 0.95 | 82 | 1011.2 |
| 20260830145555 | 69 | 125 | 2.0 | 12.0 | 0.00 | 1.39 | 0.95 | 82 | 1011.2 |
| 20260830145049 | 69 | 296 | 2.0 | 10.0 | 0.00 | 1.39 | 0.95 | 82 | 1011.3 |
| 20260830144551 | 69 | 336 | 0.0 | 8.0 | 0.00 | 1.39 | 0.95 | 82 | 1011.2 |
| 20260830144052 | 69 | 342 | 0.0 | 8.0 | 0.00 | 1.39 | 0.95 | 82 | 1011.2 |
| 20260830143549 | 69 | 62 | 1.0 | 6.0 | 0.00 | 1.39 | 0.95 | 82 | 1011.2 |
| 20260830143052 | 69 | 317 | 1.0 | 10.0 | 0.00 | 1.39 | 0.95 | 83 | 1011.2 |
| 20260830142548 | 69 | 64 | 2.0 | 14.0 | 0.00 | 1.39 | 0.95 | 83 | 1011.3 |
| 20260830142048 | 69 | 321 | 2.0 | 14.0 | 0.00 | 1.39 | 0.95 | 82 | 1011.2 |
| 20260830141553 | 69 | 240 | 3.0 | 6.0 | 0.00 | 1.39 | 0.95 | 81 | 1011.2 |
| 20260830141048 | 70 | 325 | 1.0 | 8.0 | 0.00 | 1.39 | 0.95 | 82 | 1011.1 |
| 20260830140550 | 70 | 11 | 2.0 | 10.0 | 0.00 | 1.39 | 0.95 | 81 | 1011.1 |
| 20260830140047 | 70 | 348 | 1.0 | 10.0 | 0.00 | 1.39 | 0.95 | 84 | 1011.1 |
| 20260830135546 | 70 | 261 | 0.0 | 9.0 | 0.00 | 1.39 | 0.95 | 85 | 1011.1 |
| 20260830135045 | 69 | 275 | 2.0 | 9.0 | 0.00 | 1.39 | 0.95 | 85 | 1011.1 |
| 20260830134545 | 69 | 271 | 1.0 | 6.0 | 0.00 | 1.39 | 0.95 | 87 | 1011.2 |
| 20260830134043 | 69 | 142 | 1.0 | 8.0 | 0.00 | 1.39 | 0.95 | 86 | 1011.2 |
| 20260830133541 | 69 | 9 | 1.0 | 5.0 | 0.00 | 1.39 | 0.95 | 87 | 1011.1 |
| 20260830133045 | 68 | 321 | 2.0 | 5.0 | 0.00 | 1.39 | 0.95 | 89 | 1011.1 |
| 20260830132540 | 67 | 93 | 1.0 | 7.0 | 0.01 | 1.39 | 0.95 | 90 | 1011.1 |
| 20260830132040 | 67 | 36 | 2.0 | 9.0 | 0.01 | 1.39 | 0.95 | 90 | 1011.1 |
| 20260830131540 | 66 | 309 | 1.0 | 10.0 | 0.01 | 1.39 | 0.95 | 92 | 1011.1 |
| 20260830131039 | 66 | 342 | 2.0 | 10.0 | 0.01 | 1.39 | 0.95 | 92 | 1011.0 |
| 20260830130538 | 66 | 323 | 1.0 | 7.0 | 0.01 | 1.39 | 0.95 | 93 | 1011.0 |
| 20260830130044 | 66 | 127 | 1.0 | 10.0 | 0.02 | 1.39 | 0.95 | 93 | 1011.1 |
| 20260830125538 | 66 | 209 | 2.0 | 6.0 | 0.02 | 1.39 | 0.95 | 93 | 1011.1 |
| 20260830125038 | 66 | 25 | 2.0 | 5.0 | 0.02 | 1.39 | 0.95 | 93 | 1011.2 |
| 20260830124537 | 66 | 236 | 2.0 | 5.0 | 0.02 | 1.39 | 0.95 | 94 | 1011.1 |
| 20260830124037 | 66 | 234 | 2.0 | 5.0 | 0.02 | 1.39 | 0.95 | 94 | 1011.1 |
| 20260830123537 | 66 | 327 | 1.0 | 4.0 | 0.02 | 1.39 | 0.95 | 93 | 1011.0 |
| 20260830123038 | 66 | 340 | 1.0 | 6.0 | 0.02 | 1.39 | 0.95 | 93 | 1011.0 |
| 20260830122537 | 66 | 117 | 0.0 | 4.0 | 0.02 | 1.38 | 0.94 | 93 | 1011.1 |
| 20260830122035 | 66 | 234 | 1.0 | 5.0 | 0.02 | 1.38 | 0.94 | 92 | 1011.1 |
| 20260830121537 | 66 | 78 | 2.0 | 5.0 | 0.02 | 1.38 | 0.94 | 92 | 1010.9 |
| 20260830121034 | 67 | 235 | 2.0 | 4.0 | 0.02 | 1.38 | 0.94 | 92 | 1010.8 |
| 20260830120536 | 67 | 138 | 0.0 | 5.0 | 0.02 | 1.38 | 0.94 | 91 | 1010.8 |
| 20260830120040 | 67 | 212 | 0.0 | 5.0 | 0.01 | 1.37 | 0.94 | 90 | 1010.8 |
| 20260830115536 | 67 | 182 | 0.0 | 5.0 | 0.00 | 1.36 | 0.93 | 89 | 1010.7 |
| 20260830115032 | 68 | 240 | 1.0 | 11.0 | 0.00 | 1.36 | 0.93 | 88 | 1010.6 |
| 20260830114534 | 68 | 235 | 0.0 | 11.0 | 0.00 | 1.36 | 0.93 | 88 | 1010.6 |
| 20260830114034 | 68 | 134 | 1.0 | 6.0 | 0.00 | 1.36 | 0.93 | 89 | 1010.5 |
| 20260830113530 | 68 | 275 | 3.0 | 8.0 | 0.00 | 1.36 | 0.93 | 89 | 1010.4 |
| 20260830113032 | 68 | 303 | 2.0 | 8.0 | 0.00 | 1.36 | 0.93 | 90 | 1010.4 |
| 20260830112529 | 68 | 167 | 0.0 | 12.0 | 0.00 | 1.36 | 0.93 | 92 | 1010.3 |
| 20260830112029 | 67 | 318 | 2.0 | 12.0 | 0.00 | 1.36 | 0.93 | 92 | 1010.3 |
| 20260830111528 | 67 | 331 | 2.0 | 10.0 | 0.01 | 1.36 | 0.93 | 94 | 1010.2 |
| 20260830111024 | 66 | 300 | 1.0 | 8.0 | 0.01 | 1.36 | 0.93 | 95 | 1010.2 |
| 20260830110524 | 66 | 360 | 2.0 | 8.0 | 0.01 | 1.36 | 0.93 | 95 | 1010.2 |
| 20260830110022 | 66 | 326 | 1.0 | 10.0 | 0.01 | 1.36 | 0.93 | 96 | 1010.1 |
| 20260830105524 | 65 | 306 | 4.0 | 11.0 | 0.01 | 1.36 | 0.93 | 96 | 1010.0 |
| 20260830105021 | 65 | 310 | 3.0 | 10.0 | 0.02 | 1.36 | 0.93 | 97 | 1010.0 |
| 20260830104521 | 65 | 337 | 4.0 | 9.0 | 0.02 | 1.36 | 0.93 | 97 | 1009.9 |
| 20260830104020 | 65 | 339 | 3.0 | 10.0 | 0.02 | 1.36 | 0.93 | 97 | 1010.0 |
| 20260830103520 | 65 | 308 | 5.0 | 10.0 | 0.02 | 1.36 | 0.93 | 97 | 1010.0 |
| 20260830103020 | 65 | 355 | 3.0 | 12.0 | 0.05 | 1.36 | 0.93 | 98 | 1009.9 |
| 20260830102520 | 65 | 317 | 2.0 | 12.0 | 0.08 | 1.36 | 0.93 | 98 | 1009.9 |
| 20260830102017 | 65 | 320 | 3.0 | 8.0 | 0.08 | 1.36 | 0.93 | 98 | 1009.8 |
| 20260830101515 | 65 | 317 | 3.0 | 9.0 | 0.07 | 1.35 | 0.92 | 98 | 1009.7 |
| 20260830101015 | 64 | 302 | 3.0 | 9.0 | 0.08 | 1.35 | 0.92 | 98 | 1009.6 |
| 20260830100514 | 64 | 312 | 3.0 | 9.0 | 0.11 | 1.35 | 0.92 | 97 | 1009.5 |
| 20260830100014 | 64 | 335 | 2.0 | 10.0 | 0.11 | 1.35 | 0.92 | 97 | 1009.4 |
| 20260830095517 | 64 | 355 | 4.0 | 10.0 | 0.11 | 1.36 | 0.92 | 97 | 1009.4 |
| 20260830095013 | 65 | 313 | 2.0 | 6.0 | 0.12 | 1.35 | 0.91 | 98 | 1009.3 |
| 20260830094521 | 64 | 317 | 3.0 | 6.0 | 0.12 | 1.35 | 0.91 | 97 | 1009.1 |
| 20260830094010 | 64 | 325 | 1.0 | 6.0 | 0.12 | 1.35 | 0.91 | 97 | 1009.0 |
| 20260830093509 | 64 | 331 | 1.0 | 5.0 | 0.12 | 1.35 | 0.91 | 97 | 1009.0 |
| 20260830093012 | 64 | 304 | 1.0 | 5.0 | 0.14 | 1.31 | 0.87 | 97 | 1009.0 |
| 20260830092509 | 64 | 325 | 0.0 | 3.0 | 0.12 | 1.29 | 0.85 | 97 | 1008.9 |
| 20260830092008 | 64 | 321 | 0.0 | 5.0 | 0.12 | 1.29 | 0.85 | 97 | 1008.9 |
| 20260830091508 | 64 | 322 | 0.0 | 6.0 | 0.12 | 1.29 | 0.85 | 97 | 1008.9 |
| 20260830091008 | 65 | 342 | 2.0 | 6.0 | 0.10 | 1.28 | 0.83 | 97 | 1008.8 |
| 20260830090507 | 65 | 329 | 2.0 | 6.0 | 0.08 | 1.25 | 0.81 | 97 | 1008.7 |
| 20260830090017 | 65 | 172 | 2.0 | 5.0 | 0.08 | 1.25 | 0.81 | 97 | 1008.6 |
| 20260830085505 | 65 | 251 | 1.0 | 8.0 | 0.07 | 1.28 | 0.80 | 97 | 1008.5 |
| 20260830085005 | 65 | 177 | 1.0 | 8.0 | 0.09 | 1.27 | 0.80 | 97 | 1008.5 |
| 20260830084505 | 65 | 323 | 2.0 | 6.0 | 0.12 | 1.27 | 0.80 | 97 | 1008.6 |
| 20260830084005 | 65 | 41 | 1.0 | 6.0 | 0.18 | 1.27 | 0.80 | 97 | 1008.6 |
| 20260830083503 | 65 | 338 | 2.0 | 6.0 | 0.20 | 1.26 | 0.79 | 97 | 1008.5 |
| 20260830083003 | 65 | 255 | 2.0 | 7.0 | 0.20 | 1.20 | 0.73 | 97 | 1008.4 |
| 20260830082502 | 65 | 330 | 1.0 | 5.0 | 0.20 | 1.20 | 0.73 | 98 | 1008.3 |
| 20260830082100 | 65 | 327 | 1.0 | 4.0 | 0.21 | 1.20 | 0.73 | 97 | 1008.3 |
| 20260830081600 | 65 | 303 | 0.0 | 3.0 | 0.21 | 1.20 | 0.73 | 98 | 1008.2 |
| 20260830081100 | 65 | 260 | 0.0 | 6.0 | 0.21 | 1.20 | 0.73 | 97 | 1008.2 |
| 20260830080559 | 64 | 259 | 0.0 | 6.0 | 0.21 | 1.20 | 0.73 | 97 | 1008.2 |
| 20260830080059 | 64 | 316 | 2.0 | 9.0 | 0.21 | 1.20 | 0.73 | 97 | 1008.1 |
| 20260830075558 | 64 | 317 | 3.0 | 9.0 | 0.21 | 1.28 | 0.73 | 97 | 1008.1 |
| 20260830075057 | 64 | 225 | 1.0 | 11.0 | 0.18 | 1.25 | 0.70 | 97 | 1008.0 |
| 20260830074613 | 64 | 360 | 4.0 | 11.0 | 0.16 | 1.23 | 0.68 | 97 | 1007.8 |
| 20260830074056 | 64 | 206 | 2.0 | 6.0 | 0.09 | 1.17 | 0.61 | 97 | 1007.8 |
| 20260830073556 | 64 | 178 | 2.0 | 7.0 | 0.06 | 1.12 | 0.57 | 97 | 1007.8 |
| 20260830073109 | 64 | 210 | 1.0 | 10.0 | 0.04 | 1.09 | 0.54 | 97 | 1007.6 |
| 20260830072557 | 64 | 201 | 2.0 | 10.0 | 0.05 | 1.08 | 0.53 | 97 | 1007.6 |
| 20260830072054 | 64 | 351 | 1.0 | 10.0 | 0.04 | 1.07 | 0.52 | 97 | 1007.6 |
| 20260830071554 | 64 | 22 | 1.0 | 5.0 | 0.04 | 1.07 | 0.52 | 97 | 1007.6 |
| 20260830071055 | 64 | 213 | 1.0 | 12.0 | 0.04 | 1.07 | 0.52 | 97 | 1007.5 |
| 20260830070555 | 64 | 319 | 0.0 | 6.0 | 0.05 | 1.07 | 0.52 | 97 | 1007.4 |
| 20260830070051 | 64 | 336 | 1.0 | 6.0 | 0.07 | 1.07 | 0.52 | 97 | 1007.3 |
| 20260830065555 | 65 | 184 | 2.0 | 6.0 | 0.10 | 1.19 | 0.52 | 97 | 1007.2 |
| 20260830065051 | 65 | 132 | 2.0 | 10.0 | 0.16 | 1.19 | 0.52 | 97 | 1007.1 |
| 20260830064550 | 65 | 222 | 2.0 | 10.0 | 0.23 | 1.19 | 0.52 | 97 | 1007.1 |
| 20260830064052 | 65 | 346 | 3.0 | 5.0 | 0.24 | 1.19 | 0.52 | 97 | 1007.0 |
| 20260830063548 | 65 | 232 | 1.0 | 4.0 | 0.24 | 1.19 | 0.52 | 97 | 1007.0 |
| 20260830063049 | 64 | 305 | 0.0 | 2.0 | 0.23 | 1.17 | 0.50 | 97 | 1006.8 |
| 20260830062549 | 64 | 275 | 0.0 | 3.0 | 0.21 | 1.14 | 0.48 | 97 | 1006.8 |
| 20260830062045 | 64 | 308 | 0.0 | 4.0 | 0.21 | 1.14 | 0.48 | 97 | 1006.8 |
| 20260830061607 | 64 | 195 | 1.0 | 8.0 | 0.22 | 1.14 | 0.48 | 97 | 1006.8 |
| 20260830061044 | 64 | 325 | 2.0 | 11.0 | 0.24 | 1.14 | 0.48 | 97 | 1006.7 |
| 20260830060546 | 64 | 116 | 3.0 | 11.0 | 0.24 | 1.13 | 0.47 | 97 | 1006.8 |
| 20260830060043 | 64 | 312 | 1.0 | 5.0 | 0.21 | 1.12 | 0.45 | 97 | 1006.7 |
| 20260830055545 | 64 | 301 | 2.0 | 5.0 | 0.17 | 1.13 | 0.41 | 96 | 1006.7 |
| 20260830055043 | 64 | 188 | 0.0 | 4.0 | 0.13 | 1.09 | 0.36 | 96 | 1006.6 |
| 20260830054546 | 64 | 229 | 1.0 | 4.0 | 0.06 | 1.02 | 0.28 | 96 | 1006.5 |
| 20260830054040 | 64 | 126 | 0.0 | 4.0 | 0.04 | 1.01 | 0.28 | 96 | 1006.4 |
| 20260830053540 | 64 | 155 | 1.0 | 3.0 | 0.04 | 1.01 | 0.28 | 96 | 1006.4 |
| 20260830053039 | 64 | 119 | 0.0 | 12.0 | 0.03 | 1.00 | 0.27 | 96 | 1006.3 |
| 20260830052538 | 64 | 360 | 0.0 | 12.0 | 0.03 | 1.00 | 0.27 | 96 | 1006.3 |
| 20260830052038 | 64 | 313 | 1.0 | 7.0 | 0.03 | 1.00 | 0.27 | 96 | 1006.4 |
| 20260830051537 | 64 | 325 | 1.0 | 4.0 | 0.02 | 0.98 | 0.25 | 96 | 1006.3 |
| 20260830051037 | 64 | 337 | 0.0 | 3.0 | 0.00 | 0.97 | 0.24 | 96 | 1006.1 |
| 20260830050536 | 64 | 238 | 1.0 | 3.0 | 0.00 | 0.97 | 0.24 | 96 | 1006.1 |
| 20260830050035 | 64 | 223 | 0.0 | 3.0 | 0.00 | 0.97 | 0.24 | 96 | 1006.0 |
| 20260830045534 | 64 | 105 | 1.0 | 4.0 | 0.00 | 0.98 | 0.24 | 96 | 1005.9 |
| 20260830045033 | 64 | 143 | 1.0 | 7.0 | 0.00 | 0.98 | 0.24 | 96 | 1005.9 |
| 20260830044533 | 64 | 164 | 1.0 | 7.0 | 0.00 | 0.98 | 0.24 | 96 | 1005.9 |
| 20260830044033 | 64 | 150 | 1.0 | 4.0 | 0.00 | 0.98 | 0.24 | 96 | 1005.8 |
| 20260830043532 | 64 | 119 | 1.0 | 5.0 | 0.00 | 0.98 | 0.24 | 96 | 1005.7 |
| 20260830043032 | 64 | 149 | 2.0 | 5.0 | 0.00 | 0.98 | 0.24 | 96 | 1005.7 |
| 20260830042532 | 64 | 138 | 1.0 | 4.0 | 0.00 | 0.98 | 0.24 | 96 | 1005.6 |
| 20260830042034 | 64 | 157 | 2.0 | 4.0 | 0.00 | 0.98 | 0.24 | 96 | 1005.6 |
| 20260830041531 | 64 | 205 | 1.0 | 6.0 | 0.00 | 0.98 | 0.24 | 96 | 1005.6 |
| 20260830041030 | 64 | 113 | 1.0 | 7.0 | 0.00 | 0.98 | 0.24 | 96 | 1005.6 |
| 20260830040529 | 64 | 176 | 1.0 | 7.0 | 0.00 | 0.98 | 0.24 | 96 | 1005.5 |
| 20260830040029 | 64 | 185 | 1.0 | 6.0 | 0.00 | 0.98 | 0.24 | 96 | 1005.5 |
| 20260830035529 | 64 | 355 | 1.0 | 5.0 | 0.00 | 1.03 | 0.24 | 96 | 1005.4 |
| 20260830035031 | 64 | 220 | 2.0 | 6.0 | 0.00 | 1.03 | 0.24 | 96 | 1005.4 |
| 20260830034531 | 64 | 219 | 2.0 | 6.0 | 0.00 | 1.03 | 0.24 | 96 | 1005.4 |
| 20260830034029 | 64 | 212 | 1.0 | 6.0 | 0.00 | 1.03 | 0.24 | 96 | 1005.4 |
| 20260830033530 | 64 | 155 | 1.0 | 6.0 | 0.01 | 1.03 | 0.24 | 96 | 1005.3 |
| 20260830033028 | 64 | 92 | 2.0 | 6.0 | 0.01 | 1.03 | 0.24 | 96 | 1005.3 |
| 20260830032528 | 65 | 137 | 1.0 | 5.0 | 0.01 | 1.03 | 0.24 | 95 | 1005.3 |
| 20260830032026 | 65 | 128 | 2.0 | 9.0 | 0.01 | 1.03 | 0.24 | 95 | 1005.2 |
| 20260830031526 | 65 | 157 | 2.0 | 9.0 | 0.01 | 1.03 | 0.24 | 95 | 1005.2 |
| 20260830031029 | 65 | 127 | 1.0 | 4.0 | 0.01 | 1.03 | 0.24 | 95 | 1005.1 |
| 20260830030525 | 65 | 128 | 0.0 | 4.0 | 0.01 | 1.03 | 0.24 | 95 | 1005.1 |
| 20260830030029 | 65 | 94 | 1.0 | 5.0 | 0.01 | 1.03 | 0.24 | 95 | 1005.0 |
| 20260830025524 | 65 | 236 | 1.0 | 7.0 | 0.03 | 1.08 | 0.24 | 95 | 1005.0 |